This is the latest recevied weather packets stored in our database for station/object VK4AB-13. If no packets are shown the sender has not sent any weather packets the latest 1 day(s).
| Time | Temp. | Humidity | Pressure | Rain* | Wind** | Luminosity | Snow |
|---|---|---|---|---|---|---|---|
| 1778053425 | 22.78° C | 80% | 1015.5 hPa | 0 mm | 0.89 m/s, 109° | 0 W/m² | - |
| 1778053125 | 22.78° C | 79% | 1015.5 hPa | 0 mm | 0.45 m/s, 109° | 0 W/m² | - |
| 1778052825 | 22.78° C | 79% | 1015.5 hPa | 0 mm | 0 m/s | 0 W/m² | - |
| 1778052525 | 22.78° C | 78% | 1015.5 hPa | 0 mm | 0.45 m/s, 109° | 0 W/m² | - |
| 1778052225 | 23.33° C | 78% | 1015.4 hPa | 0 mm | 0.89 m/s, 109° | 0 W/m² | - |
| 1778051925 | 23.33° C | 77% | 1015.4 hPa | 0 mm | 0.45 m/s, 109° | 0 W/m² | - |
| 1778051625 | 23.33° C | 76% | 1015.3 hPa | 0 mm | 0.45 m/s, 109° | 0 W/m² | - |
| 1778051325 | 23.33° C | 76% | 1015.2 hPa | 0 mm | 0.89 m/s, 109° | 5 W/m² | - |
| 1778051025 | 23.89° C | 75% | 1015.2 hPa | 0 mm | 0.89 m/s, 109° | 7 W/m² | - |
| 1778050725 | 23.89° C | 75% | 1015.1 hPa | 0 mm | 0.89 m/s, 109° | 14 W/m² | - |
| 1778050425 | 23.89° C | 74% | 1015 hPa | 0 mm | 0.89 m/s, 109° | 19 W/m² | - |
| 1778050125 | 23.89° C | 74% | 1015.1 hPa | 0 mm | 0.89 m/s, 109° | 30 W/m² | - |
| 1778049825 | 23.89° C | 73% | 1015 hPa | 0 mm | 0.89 m/s, 108° | 33 W/m² | - |
| 1778049525 | 24.44° C | 73% | 1014.9 hPa | 0 mm | 0.89 m/s, 105° | 42 W/m² | - |
| 1778049225 | 24.44° C | 72% | 1014.9 hPa | 0 mm | 0.89 m/s, 105° | 46 W/m² | - |
| 1778048925 | 24.44° C | 71% | 1015 hPa | 0 mm | 0.89 m/s, 103° | 53 W/m² | - |
| 1778048625 | 24.44° C | 71% | 1014.9 hPa | 0 mm | 1.34 m/s, 104° | 81 W/m² | - |
| 1778048325 | 24.44° C | 71% | 1014.9 hPa | 0 mm | 1.34 m/s, 105° | 109 W/m² | - |
| 1778048025 | 24.44° C | 72% | 1014.8 hPa | 0 mm | 1.34 m/s, 103° | 179 W/m² | - |
| 1778047725 | 24.44° C | 72% | 1014.8 hPa | 0 mm | 1.34 m/s, 108° | 206 W/m² | - |
| 1778047425 | 24.44° C | 72% | 1014.7 hPa | 0 mm | 1.34 m/s, 113° | 134 W/m² | - |
| 1778047125 | 24.44° C | 71% | 1014.8 hPa | 0 mm | 1.34 m/s, 123° | 118 W/m² | - |
| 1778046825 | 24.44° C | 70% | 1014.8 hPa | 0 mm | 1.34 m/s, 123° | 84 W/m² | - |
| 1778046525 | 24.44° C | 69% | 1014.8 hPa | 0 mm | 1.34 m/s, 113° | 83 W/m² | - |
| 1778046225 | 24.44° C | 68% | 1014.9 hPa | 0 mm | 1.79 m/s, 115° | 72 W/m² | - |
* Rain latest hour (hover to see other rain measurements)
** Current wind speed in m/s (hover to see current wind gust speed)